AURA

Last updated on Thu Dec 18 2025 00:02:31 GMT+0000 (Coordinated Universal Time)

1 28376U 04026A 25351.58403553 .00000873 00000+0 18787-3 0 9998 2 28376 98.3190 301.8332 0001322 93.4235 266.7116 14.60957977139694
UTC large
Height (km)
Speed (km/s)
/
Latitude / Longitude
Inclination (degrees)
Orbital Period (minutes)
Azimuth
Elevation
Range (km)
Doppler Factor

Next 0 passes for location: London (51.5072 / 0.1276)

Sorry there are no passes over London.